| time (UTC) | temp F | wind direction | speed MPH | gust MPH | rain 1hr in | rain 24hr in | rain mn in | humidity % | barometer mb |
| 20260504044240 | 57 | 171 | 6.0 | 12.0 | 0.00 | 0.00 | 0.00 | 27 | 1002.7 |
| 20260504043236 | 57 | 192 | 8.0 | 11.0 | 0.00 | 0.00 | 0.00 | 27 | 1002.7 |
| 20260504042244 | 57 | 160 | 5.0 | 7.0 | 0.00 | 0.00 | 0.00 | 27 | 1002.9 |
| 20260504041245 | 57 | 159 | 4.0 | 6.0 | 0.00 | 0.00 | 0.00 | 28 | 1003.0 |
| 20260504040304 | 56 | 167 | 4.0 | 6.0 | 0.00 | 0.00 | 0.00 | 29 | 1003.0 |
| 20260504035229 | 56 | 167 | 5.0 | 6.0 | 0.00 | 0.00 | 0.00 | 29 | 1003.1 |
| 20260504034247 | 55 | 275 | 3.0 | 4.0 | 0.00 | 0.00 | 0.00 | 31 | 1003.0 |
| 20260504033245 | 57 | 275 | 2.0 | 5.0 | 0.00 | 0.00 | 0.00 | 31 | 1003.0 |
| 20260504032249 | 57 | 342 | 2.0 | 3.0 | 0.00 | 0.00 | 0.00 | 28 | 1003.0 |
| 20260504031234 | 58 | 342 | 0.0 | 2.0 | 0.00 | 0.00 | 0.00 | 26 | 1003.0 |
| 20260504030238 | 60 | 342 | 2.0 | 3.0 | 0.00 | 0.00 | 0.00 | 25 | 1003.0 |
| 20260504025237 | 61 | 342 | 0.0 | 1.0 | 0.00 | 0.00 | 0.00 | 25 | 1002.7 |
| 20260504024241 | 62 | 342 | 0.0 | 1.0 | 0.00 | 0.00 | 0.00 | 21 | 1003.0 |
| 20260504023243 | 62 | 342 | 1.0 | 5.0 | 0.00 | 0.00 | 0.00 | 20 | 1003.0 |
| 20260504022240 | 63 | 324 | 2.0 | 5.0 | 0.00 | 0.00 | 0.00 | 19 | 1002.6 |
| 20260504021244 | 64 | 287 | 2.0 | 7.0 | 0.00 | 0.00 | 0.00 | 18 | 1002.6 |
| 20260504020247 | 64 | 263 | 3.0 | 6.0 | 0.00 | 0.00 | 0.00 | 17 | 1002.6 |
| 20260504015243 | 64 | 276 | 1.0 | 9.0 | 0.00 | 0.00 | 0.00 | 17 | 1002.4 |
| 20260504014247 | 65 | 13 | 4.0 | 12.0 | 0.00 | 0.00 | 0.00 | 17 | 1002.4 |
| 20260504013249 | 65 | 345 | 8.0 | 13.0 | 0.00 | 0.00 | 0.00 | 18 | 1002.4 |
| 20260504012309 | 64 | 23 | 3.0 | 9.0 | 0.00 | 0.00 | 0.00 | 19 | 1002.5 |
| 20260504011249 | 65 | 9 | 3.0 | 10.0 | 0.00 | 0.00 | 0.00 | 19 | 1002.5 |
| 20260504010230 | 65 | 17 | 4.0 | 12.0 | 0.00 | 0.00 | 0.00 | 18 | 1002.5 |
| 20260504005229 | 66 | 306 | 1.0 | 9.0 | 0.00 | 0.00 | 0.00 | 18 | 1002.5 |
| 20260504004233 | 66 | 344 | 5.0 | 11.0 | 0.00 | 0.00 | 0.00 | 17 | 1002.4 |
| 20260504003238 | 66 | 5 | 7.0 | 14.0 | 0.00 | 0.00 | 0.00 | 17 | 1002.4 |
| 20260504002243 | 67 | 11 | 9.0 | 18.0 | 0.00 | 0.00 | 0.00 | 17 | 1002.3 |
| 20260504001247 | 67 | 11 | 7.0 | 13.0 | 0.00 | 0.00 | 0.00 | 16 | 1002.1 |
| 20260504000234 | 68 | 12 | 10.0 | 15.0 | 0.00 | 0.00 | 0.00 | 15 | 1002.1 |
| 20260503235239 | 68 | 14 | 5.0 | 10.0 | 0.00 | 0.00 | 0.00 | 14 | 1002.0 |
| 20260503234239 | 69 | 11 | 8.0 | 16.0 | 0.00 | 0.00 | 0.00 | 14 | 1002.2 |
| 20260503233246 | 69 | 18 | 9.0 | 15.0 | 0.00 | 0.00 | 0.00 | 13 | 1002.2 |
| 20260503232248 | 70 | 20 | 9.0 | 15.0 | 0.00 | 0.00 | 0.00 | 13 | 1002.2 |
| 20260503231249 | 71 | 25 | 6.0 | 12.0 | 0.00 | 0.00 | 0.00 | 12 | 1002.1 |
| 20260503230240 | 72 | 355 | 8.0 | 14.0 | 0.00 | 0.00 | 0.00 | 11 | 1002.1 |
| 20260503225239 | 73 | 15 | 4.0 | 11.0 | 0.00 | 0.00 | 0.00 | 10 | 1002.1 |
| 20260503224246 | 72 | 194 | 2.0 | 4.0 | 0.00 | 0.00 | 0.00 | 10 | 1002.4 |
| 20260503223228 | 72 | 221 | 6.0 | 8.0 | 0.00 | 0.00 | 0.00 | 11 | 1002.4 |
| 20260503222254 | 72 | 86 | 2.0 | 7.0 | 0.00 | 0.00 | 0.00 | 11 | 1002.4 |
| 20260503221240 | 73 | 17 | 2.0 | 8.0 | 0.00 | 0.00 | 0.00 | 10 | 1002.6 |
| 20260503220235 | 74 | 17 | 3.0 | 10.0 | 0.00 | 0.00 | 0.00 | 10 | 1002.6 |
| 20260503215238 | 74 | 248 | 2.0 | 13.0 | 0.00 | 0.00 | 0.00 | 10 | 1003.0 |
| 20260503214244 | 74 | 290 | 7.0 | 12.0 | 0.00 | 0.00 | 0.00 | 11 | 1003.1 |
| 20260503213248 | 71 | 306 | 5.0 | 12.0 | 0.00 | 0.00 | 0.00 | 10 | 1003.1 |
| 20260503212235 | 71 | 42 | 6.0 | 13.0 | 0.00 | 0.00 | 0.00 | 11 | 1003.4 |
| 20260503211258 | 72 | 20 | 8.0 | 13.0 | 0.00 | 0.00 | 0.00 | 11 | 1003.7 |
| 20260503210234 | 73 | 103 | 3.0 | 8.0 | 0.00 | 0.00 | 0.00 | 10 | 1003.7 |
| 20260503205239 | 74 | 138 | 3.0 | 9.0 | 0.00 | 0.00 | 0.00 | 10 | 1003.7 |
| 20260503204244 | 73 | 114 | 3.0 | 7.0 | 0.00 | 0.00 | 0.00 | 11 | 1003.9 |
| 20260503203247 | 74 | 69 | 4.0 | 12.0 | 0.00 | 0.00 | 0.00 | 11 | 1003.9 |
| 20260503202247 | 72 | 84 | 5.0 | 9.0 | 0.00 | 0.00 | 0.00 | 11 | 1004.2 |
| 20260503201232 | 74 | 95 | 6.0 | 11.0 | 0.00 | 0.00 | 0.00 | 10 | 1004.3 |
| 20260503200256 | 75 | 138 | 4.0 | 7.0 | 0.00 | 0.00 | 0.00 | 10 | 1004.3 |
| 20260503195243 | 73 | 12 | 4.0 | 12.0 | 0.00 | 0.00 | 0.00 | 9 | 1004.4 |
| 20260503194247 | 75 | 113 | 3.0 | 7.0 | 0.00 | 0.00 | 0.00 | 10 | 1004.7 |
| 20260503193310 | 74 | 147 | 4.0 | 11.0 | 0.00 | 0.00 | 0.00 | 11 | 1004.7 |
| 20260503192246 | 74 | 50 | 3.0 | 9.0 | 0.00 | 0.00 | 0.00 | 10 | 1004.9 |
| 20260503191248 | 74 | 24 | 4.0 | 9.0 | 0.00 | 0.00 | 0.00 | 10 | 1005.2 |
| 20260503190250 | 73 | 73 | 2.0 | 10.0 | 0.00 | 0.00 | 0.00 | 11 | 1005.2 |
| 20260503185232 | 71 | 71 | 5.0 | 11.0 | 0.00 | 0.00 | 0.00 | 13 | 1005.7 |
| 20260503184232 | 70 | 360 | 7.0 | 13.0 | 0.00 | 0.00 | 0.00 | 12 | 1006.1 |
| 20260503183237 | 71 | 314 | 6.0 | 13.0 | 0.00 | 0.00 | 0.00 | 10 | 1006.1 |
| 20260503182241 | 71 | 355 | 8.0 | 12.0 | 0.00 | 0.00 | 0.00 | 11 | 1006.2 |
| 20260503181233 | 70 | 308 | 3.0 | 7.0 | 0.00 | 0.00 | 0.00 | 13 | 1006.5 |
| 20260503180241 | 69 | 12 | 2.0 | 11.0 | 0.00 | 0.00 | 0.00 | 15 | 1006.5 |
| 20260503175246 | 68 | 281 | 4.0 | 8.0 | 0.00 | 0.00 | 0.00 | 15 | 1006.8 |
| 20260503174249 | 68 | 273 | 2.0 | 8.0 | 0.00 | 0.00 | 0.00 | 15 | 1006.9 |
| 20260503173250 | 67 | 281 | 5.0 | 13.0 | 0.00 | 0.00 | 0.00 | 16 | 1006.9 |
| 20260503172234 | 66 | 271 | 4.0 | 11.0 | 0.00 | 0.00 | 0.00 | 16 | 1007.4 |
| 20260503171240 | 66 | 265 | 5.0 | 14.0 | 0.00 | 0.00 | 0.00 | 18 | 1007.5 |
| 20260503170242 | 65 | 240 | 8.0 | 14.0 | 0.00 | 0.00 | 0.00 | 17 | 1007.5 |
| 20260503150305 | 58 | 242 | 8.0 | 18.0 | 0.00 | 0.00 | 0.00 | 22 | 1008.1 |
| 20260503140241 | 57 | 175 | 9.0 | 16.0 | 0.00 | 0.00 | 0.00 | 25 | 1008.1 |
| 20260503131240 | 54 | 192 | 9.0 | 13.0 | 0.00 | 0.00 | 0.00 | 28 | 1008.0 |
| 20260503130245 | 53 | 178 | 8.0 | 11.0 | 0.00 | 0.00 | 0.00 | 28 | 1008.0 |
| 20260503110233 | 50 | 196 | 9.0 | 12.0 | 0.00 | 0.00 | 0.00 | 27 | 1007.3 |
| 20260503100236 | 51 | 194 | 8.0 | 13.0 | 0.00 | 0.00 | 0.00 | 28 | 1007.5 |
| 20260503090244 | 51 | 175 | 6.0 | 10.0 | 0.00 | 0.00 | 0.00 | 27 | 1007.6 |
| 20260503081241 | 50 | 219 | 6.0 | 10.0 | 0.00 | 0.00 | 0.00 | 27 | 1007.9 |
| 20260503080306 | 50 | 186 | 6.0 | 10.0 | 0.00 | 0.00 | 0.00 | 28 | 1007.9 |
| 20260503072250 | 52 | 205 | 4.0 | 10.0 | 0.00 | 0.00 | 0.00 | 26 | 1008.1 |
| 20260503071252 | 53 | 216 | 5.0 | 11.0 | 0.00 | 0.00 | 0.00 | 25 | 1008.1 |
| 20260503070254 | 54 | 191 | 8.0 | 14.0 | 0.00 | 0.00 | 0.00 | 25 | 1008.1 |
| 20260503060239 | 53 | 197 | 5.0 | 12.0 | 0.00 | 0.00 | 0.00 | 26 | 1008.1 |
| 20260503054243 | 53 | 184 | 9.0 | 14.0 | 0.00 | 0.00 | 0.00 | 26 | 1008.1 |
| 20260503053244 | 53 | 194 | 8.0 | 11.0 | 0.00 | 0.00 | 0.00 | 26 | 1008.1 |
| 20260503052241 | 53 | 167 | 9.0 | 13.0 | 0.00 | 0.00 | 0.00 | 26 | 1008.0 |
| 20260503051250 | 53 | 171 | 9.0 | 13.0 | 0.00 | 0.00 | 0.00 | 25 | 1008.0 |
| 20260503050252 | 54 | 179 | 10.0 | 13.0 | 0.00 | 0.00 | 0.00 | 25 | 1008.0 |
| 20260503045233 | 54 | 160 | 10.0 | 14.0 | 0.00 | 0.00 | 0.00 | 24 | 1008.1 |